Location: Ingoldesthorpe
(52.8667°N, 0.5167°E)
Time: 22:09:50
(UTC+00:00)

NOSS 3-1 (C) - Pass Details

Date: 19 May 2025
Orbit: 632 x 1571 km, 63.4° (Epoch: 02 June)

Event Time Altitude Azimuth Distance (km) Brightness Sun altitude
Rises 22:06:39 0° 227° (SW) 3,024 5.9 -13.5°
Reaches altitude 10° 22:08:47 10° 228° (SW) 2,178 5.2 -13.6°
Maximum altitude 22:13:42 86° 317° (NW) 812 3.1 -13.9°
Drops below altitude 10° 22:19:51 10° 47° (NE) 2,690 6.1 -14.3°
Sets 22:22:44 0° 48° (NE) 3,794 6.9 -14.5°
